Weather Service Report


995 
ASUS45 KBOI 180810
RWRID 
WEATHER ROUNDUP FOR IDAHO
NATIONAL WEATHER SERVICE BOISE ID
200 AM MDT THU SEP 18 2014

NOTE: "FAIR" INDICATES FEW OR NO CLOUDS BELOW 12000 FEET
WITH NO SIGNIFICANT WEATHER AND/OR OBSTRUCTIONS TO VISIBILITY

IDZ012-014-180900-
SOUTHWEST IDAHO

  
CITY           SKY/WX    TMP DP  RH WIND       PRES   REMARKS
BOISE          CLOUDY    76  40  27 W9        29.71R                  
CALDWELL       CLOUDY    66  48  52 E7        29.71F                  
MOUNTAIN HOME  CLOUDY    74  45  34 SE8       29.70F                  
$$

IDZ016-017-180900-
SOUTHCENTRAL IDAHO

  
CITY           SKY/WX    TMP DP  RH WIND       PRES   REMARKS
BURLEY         CLOUDY    67  55  65 E7        29.80F                  
JEROME         PTCLDY    72  46  39 E10       29.79S                  
TWIN FALLS     MOCLDY    72  45  37 S13       29.79R                  
$$

IDZ019>023-180900-
SOUTHEAST IDAHO

  
CITY           SKY/WX    TMP DP  RH WIND       PRES   REMARKS
IDAHO FALLS    MOCLDY    65  45  48 SE6       29.92R                  
POCATELLO      CLEAR     69  46  43 E7        29.88F                  
REXBURG        PTCLDY    58  45  62 N5        29.92R                  
$$

IDZ006-010-011-018-031-032-180900-
CENTRAL IDAHO MOUNTAINS

  
CITY           SKY/WX    TMP DP  RH WIND       PRES   REMARKS
MCCALL         MOCLDY    53  37  54 S3        29.86R                  
HAILEY         PTCLDY    59  46  63 NW3       29.93F                  
STANLEY          N/A     52  36  54 E5        30.01F                  
SALMON         CLOUDY    52  45  76 CALM      29.87R                  
CHALLIS        CLOUDY    55  43  63 E3        29.91F                  
$$

IDZ002-004-006-007-026-180900-
NORTHERN IDAHO

  
CITY           SKY/WX    TMP DP  RH WIND       PRES   REMARKS
LEWISTON       CLOUDY    68  40  35 S5        29.61F                  
LOWELL           N/A     59  56  89 CALM      29.69F                  
COEUR D'ALENE  MOCLDY    57  48  72 E6        29.67F                  
MULLAN PASS    MOCLDY    61  38  42 S7        29.89F                  
$$

Return to Home page


Western Regional Climate Center, wrcc@dri.edu